Location: Peebles
(55.6412°N, 3.1714°W)
Time: 01:12:54
(UTC+01:00)

deb r/b Ablestar - Pass Details

Date: 09 July 2022
Orbit: 859 x 1154 km, 67.2° (Epoch: 13 August)

Event Time Altitude Azimuth Distance (km) Brightness Sun altitude
Rises 02:57:37 0° 313° (NW) 4,030 ? -9.2°
Reaches altitude 10° 03:02:25 10° 285° (WNW) 3,056 ? -8.9°
Maximum altitude 03:04:56 12° 265° (W) 2,886 ? -8.7°
Drops below altitude 10° 03:07:25 10° 244° (WSW) 3,021 ? -8.6°
Enters shadow 03:09:19 - 231° (SW) 3,304 ? -8.5°
